Regional Weather Roundup
Issued by NWS

Home | Current Version | Previous Version | Text Only | Print | Product List | Glossary Off
Versions: 1 2 3 4 5 6 7 8 9 10 11 12 13 14 15 16 17 18 19 20 21 22 23 24 25 26 27 28 29 30 31 32 33 34 35 36 37 38 39 40 41 42 43 44 45 46 47 48 49 50

000
ASUS43 KBIS 312301
RWRND

NORTH DAKOTA REGIONAL WEATHER ROUNDUP
NATIONAL WEATHER SERVICE BISMARCK ND
500 PM CST SAT JAN 31 2015

NOTE: "FAIR" INDICATES FEW OR NO CLOUDS BELOW 12,000 FEET WITH NO
SIGNIFICANT WEATHER AND/OR OBSTRUCTIONS TO VISIBILITY.


NDZ001>003-009>011-017-010000-
NORTHWEST NORTH DAKOTA

CITY           SKY/WX    TMP DP  RH WIND       PRES   REMARKS
WILLISTON      LGT SNOW   4  -2  76 NE14      30.37R WCI -14
MINOT          CLOUDY     1  -8  66 NE14      30.41R WCI -17
MINOT AFB      CLOUDY    -1  -7  76 N16       30.42R WCI -22
$$

NDZ018>021-031>035-040>046-010000-
SOUTHWEST NORTH DAKOTA

CITY           SKY/WX    TMP DP  RH WIND       PRES   REMARKS
BISMARCK       CLOUDY     9  -1  64 NE16      30.32R WCI  -8
DICKINSON      SNOW       9   4  80 NE21G26   30.17R VSB 1/2 WCI -11
GARRISON         N/A      1  -4  79 NE10G20   30.35R WCI -15
HETTINGER ARPT FLURRIES  13  10  88 E23       30.10F WCI  -6
$$

NDZ004>008-012>016-024-026-027-054-010000-
NORTHEAST NORTH DAKOTA

CITY           SKY/WX    TMP DP  RH WIND       PRES   REMARKS
GRAND FORKS    CLOUDY    -2 -11  65 N20       30.46R WCI -24
GRND FRKS AFB  PTCLDY    -4 -13  65 N21G28    30.46R WCI -27
DEVILS LAKE    PTCLDY    -4 -15  59 NE16      30.40R WCI -25
$$

NDZ022-023-025-028>030-036>039-047>053-010000-
SOUTHEAST NORTH DAKOTA

CITY           SKY/WX    TMP DP  RH WIND       PRES   REMARKS
FARGO          CLOUDY     8  -6  52 N20       30.36R WCI -11
JAMESTOWN      CLOUDY     6  -6  57 NE17      30.32R WCI -13
$$



USA.gov is the U.S. government's official web portal to all federal, state and local government web resources and services.